KE8GJZ-1 Weather Reports


Display with metric or nautical units.
time (UTC)temp
F
wind
direction
speed
MPH
gust
MPH
rain 1hr
in
rain 24hr
in
rain mn
in
humidity
%
barometer
mb
20260508225421 63 169 1.0 1.0 0.00 0.00 0.00 36 1004.9
20260508224919 63 163 0.0 0.0 0.00 0.00 0.00 35 1005.0
20260508224416 63 278 0.0 0.0 0.00 0.00 0.00 36 1004.8
20260508223913 63 354 3.0 3.0 0.00 0.00 0.00 35 1004.7
20260508223411 63 223 0.0 0.0 0.00 0.00 0.00 36 1004.7
20260508222908 63 201 0.0 0.0 0.00 0.00 0.00 35 1004.7
20260508222405 63 251 0.0 0.0 0.00 0.00 0.00 35 1005.0
20260508221902 63 290 0.0 0.0 0.00 0.00 0.00 35 1005.0
20260508221357 64 164 0.0 0.0 0.00 0.00 0.00 35 1004.9
20260508220854 64 339 1.0 1.0 0.00 0.00 0.00 33 1005.1
20260508220350 65 182 2.0 2.0 0.00 0.00 0.00 33 1005.1
20260508215847 65 156 1.0 2.0 0.00 0.00 0.00 32 1005.1
20260508215344 65 176 1.0 1.0 0.00 0.00 0.00 34 1004.9
20260508214840 65 316 1.0 1.0 0.00 0.00 0.00 37 1005.1
20260508214338 65 188 0.0 0.0 0.00 0.00 0.00 35 1005.2
20260508213834 64 279 0.0 1.0 0.00 0.00 0.00 34 1005.1
20260508213332 64 162 0.0 0.0 0.00 0.00 0.00 35 1005.0
20260508212827 66 0 1.0 2.0 0.00 0.00 0.00 35 1005.3
20260508212324 65 112 0.0 0.0 0.00 0.00 0.00 35 1005.2
20260508211820 65 161 0.0 1.0 0.00 0.00 0.00 35 1005.0
20260508211315 66 124 1.0 1.0 0.00 0.00 0.00 35 1005.3
20260508210813 66 133 1.0 1.0 0.00 0.00 0.00 34 1005.3
20260508210310 66 349 1.0 1.0 0.00 0.00 0.00 35 1005.1
20260508205807 67 325 1.0 3.0 0.00 0.00 0.00 32 1005.4
20260508205306 68 317 1.0 1.0 0.00 0.00 0.00 32 1005.4
20260508204759 68 150 2.0 3.0 0.00 0.00 0.00 31 1005.4
20260508204256 69 219 0.0 0.0 0.00 0.00 0.00 32 1005.5
20260508203752 68 263 1.0 2.0 0.00 0.00 0.00 31 1005.4
20260508203249 68 291 2.0 2.0 0.00 0.00 0.00 33 1005.4
20260508202744 67 154 0.0 1.0 0.00 0.00 0.00 33 1005.5
20260508202242 68 319 1.0 2.0 0.00 0.00 0.00 31 1005.6
20260508201739 68 127 2.0 2.0 0.00 0.00 0.00 31 1005.8
20260508201235 68 177 0.0 1.0 0.00 0.00 0.00 30 1005.8
20260508200732 69 307 3.0 3.0 0.00 0.00 0.00 29 1005.8
20260508200228 68 171 1.0 2.0 0.00 0.00 0.00 30 1005.9
20260508195725 68 164 2.0 2.0 0.00 0.00 0.00 31 1005.9
20260508195221 68 140 1.0 1.0 0.00 0.00 0.00 30 1006.4
20260508194718 68 91 1.0 1.0 0.00 0.00 0.00 31 1006.5
20260508194215 68 237 1.0 1.0 0.00 0.00 0.00 30 1006.5
20260508193712 67 157 1.0 3.0 0.00 0.00 0.00 32 1006.4
20260508193209 67 341 2.0 3.0 0.00 0.00 0.00 30 1006.3
20260508192705 67 139 1.0 2.0 0.00 0.00 0.00 31 1006.6
20260508192202 67 116 1.0 2.0 0.00 0.00 0.00 31 1006.8
20260508191700 66 305 2.0 3.0 0.00 0.00 0.00 33 1006.9
20260508191156 67 220 0.0 0.0 0.00 0.00 0.00 33 1006.6
20260508190654 67 159 1.0 2.0 0.00 0.00 0.00 33 1006.9
20260508190149 66 159 0.0 1.0 0.00 0.00 0.00 33 1007.1
20260508185647 65 143 1.0 1.0 0.00 0.00 0.00 35 1007.0
20260508185144 65 316 2.0 5.0 0.00 0.00 0.00 32 1007.4
20260508184641 66 32 2.0 2.0 0.00 0.00 0.00 31 1007.3
20260508184138 66 283 1.0 1.0 0.00 0.00 0.00 32 1007.0
20260508183635 66 306 3.0 3.0 0.00 0.00 0.00 35 1007.3
20260508183131 67 112 1.0 1.0 0.00 0.00 0.00 33 1007.4
20260508182627 65 212 0.0 1.0 0.00 0.00 0.00 36 1007.7
20260508182124 65 25 0.0 1.0 0.00 0.00 0.00 34 1007.6
20260508181619 65 148 3.0 3.0 0.00 0.00 0.00 33 1007.7
20260508181117 65 287 2.0 2.0 0.00 0.00 0.00 34 1007.6
20260508180613 65 135 1.0 2.0 0.00 0.00 0.00 33 1007.4
20260508180110 65 174 1.0 1.0 0.00 0.00 0.00 34 1007.4
20260508175607 66 342 2.0 2.0 0.00 0.00 0.00 32 1007.7
20260508175104 65 149 0.0 1.0 0.00 0.00 0.00 34 1007.6
20260508174601 65 283 1.0 1.0 0.00 0.00 0.00 33 1007.9
20260508174058 65 124 0.0 1.0 0.00 0.00 0.00 31 1008.0
20260508173555 66 70 1.0 2.0 0.00 0.00 0.00 32 1008.1
20260508173051 65 162 2.0 2.0 0.00 0.00 0.00 31 1008.1
20260508172548 65 152 1.0 1.0 0.00 0.00 0.00 32 1008.4
20260508172045 66 204 1.0 2.0 0.00 0.00 0.00 31 1008.2
20260508171541 66 122 0.0 0.0 0.00 0.00 0.00 31 1008.5
20260508171038 65 21 2.0 2.0 0.00 0.00 0.00 34 1008.6
20260508170535 64 116 0.0 1.0 0.00 0.00 0.00 32 1008.5
20260508170032 65 302 1.0 2.0 0.00 0.00 0.00 31 1008.6
20260508165530 65 59 0.0 0.0 0.00 0.00 0.00 31 1008.8
20260508165026 65 121 0.0 1.0 0.00 0.00 0.00 34 1008.8
20260508164523 64 217 0.0 0.0 0.00 0.00 0.00 33 1008.9
20260508164020 62 21 0.0 1.0 0.00 0.00 0.00 34 1009.0
20260508163517 63 137 2.0 2.0 0.00 0.00 0.00 35 1009.1
20260508163013 62 296 1.0 1.0 0.00 0.00 0.00 34 1009.2
20260508162510 62 103 1.0 1.0 0.00 0.00 0.00 35 1009.1
20260508162008 62 235 1.0 1.0 0.00 0.00 0.00 36 1009.2
20260508161504 63 292 2.0 2.0 0.00 0.00 0.00 34 1009.3
20260508161001 62 269 0.0 0.0 0.00 0.00 0.00 34 1009.2
20260508160500 62 151 0.0 1.0 0.00 0.00 0.00 35 1009.4
20260508155956 62 327 1.0 1.0 0.00 0.00 0.00 33 1009.5
20260508155454 62 12 0.0 0.0 0.00 0.00 0.00 36 1009.5
20260508154950 63 298 1.0 1.0 0.00 0.00 0.00 36 1009.3
20260508154448 62 90 2.0 2.0 0.00 0.00 0.00 36 1009.4
20260508153944 62 168 1.0 2.0 0.00 0.00 0.00 38 1009.5
20260508153441 62 162 1.0 1.0 0.00 0.00 0.00 39 1009.3
20260508152937 61 347 1.0 2.0 0.00 0.00 0.00 39 1009.7
20260508152434 62 146 1.0 1.0 0.00 0.00 0.00 39 1009.8
20260508151931 63 291 1.0 1.0 0.00 0.00 0.00 39 1009.7
20260508151427 60 328 1.0 1.0 0.00 0.00 0.00 43 1009.7
20260508150924 59 254 0.0 1.0 0.00 0.00 0.00 46 1009.7
20260508150421 60 317 0.0 0.0 0.00 0.00 0.00 43 1009.7
20260508145916 60 320 1.0 1.0 0.00 0.00 0.00 42 1009.8
20260508145413 59 283 0.0 1.0 0.00 0.00 0.00 45 1009.8
20260508144910 59 322 2.0 3.0 0.00 0.00 0.00 42 1009.8
20260508144408 60 337 2.0 2.0 0.00 0.00 0.00 40 1010.1
20260508143905 59 1 1.0 1.0 0.00 0.00 0.00 43 1009.8
20260508143402 58 325 0.0 0.0 0.00 0.00 0.00 41 1009.8
20260508142859 58 201 0.0 1.0 0.00 0.00 0.00 40 1010.1
20260508142356 56 265 0.0 0.0 0.00 0.00 0.00 46 1009.9
20260508141852 57 301 0.0 0.0 0.00 0.00 0.00 49 1010.2
20260508141349 57 305 1.0 1.0 0.00 0.00 0.00 47 1010.1
20260508140847 57 299 0.0 0.0 0.00 0.00 0.00 50 1010.5
20260508140343 57 313 1.0 1.0 0.00 0.00 0.00 49 1010.4
20260508135839 57 313 1.0 1.0 0.00 0.00 0.00 49 1010.2
20260508135336 57 304 1.0 1.0 0.00 0.00 0.00 50 1010.2
20260508134832 55 313 0.0 0.0 0.00 0.00 0.00 57 1010.4
20260508134329 55 330 0.0 0.0 0.00 0.00 0.00 55 1010.4
20260508133825 54 335 1.0 1.0 0.00 0.00 0.00 56 1010.3
20260508133323 53 319 0.0 0.0 0.00 0.00 0.00 62 1010.3
20260508132820 51 240 0.0 0.0 0.00 0.00 0.00 67 1010.5
20260508132318 50 308 1.0 1.0 0.00 0.00 0.00 68 1010.5
20260508131814 50 315 0.0 0.0 0.00 0.00 0.00 67 1010.5
20260508131310 49 217 0.0 0.0 0.00 0.00 0.00 72 1010.5
20260508130806 48 271 0.0 0.0 0.00 0.00 0.00 73 1010.3
20260508130304 48 167 0.0 0.0 0.00 0.00 0.00 76 1010.4
20260508125800 47 245 0.0 0.0 0.00 0.00 0.00 79 1010.4
20260508125256 46 227 0.0 0.0 0.00 0.00 0.00 80 1010.3
20260508124754 45 237 0.0 0.0 0.00 0.00 0.00 85 1010.7
20260508124251 45 246 0.0 0.0 0.00 0.00 0.00 90 1010.4
20260508123749 44 261 0.0 0.0 0.00 0.00 0.00 95 1010.2
20260508123247 43 278 0.0 0.0 0.00 0.00 0.00 98 1010.3
20260508122743 43 230 0.0 0.0 0.00 0.00 0.00 98 1010.3
20260508122240 42 241 0.0 0.0 0.00 0.00 0.00 99 1010.2
20260508121737 42 254 0.0 0.0 0.00 0.00 0.00 99 1009.8
20260508121235 42 272 0.0 0.0 0.00 0.00 0.00 99 1009.8
20260508120733 41 237 0.0 0.0 0.00 0.00 0.00 99 1009.9
20260508120231 41 259 0.0 0.0 0.00 0.00 0.00 99 1010.2
20260508115728 40 245 0.0 0.0 0.00 0.00 0.00 99 1009.9
20260508115225 39 228 0.0 0.0 0.00 0.00 0.00 99 1009.7
20260508114722 38 239 0.0 0.0 0.00 0.00 0.00 98 1009.7
20260508114218 38 240 0.0 0.0 0.00 0.00 0.00 98 1009.9
20260508113715 37 247 0.0 0.0 0.00 0.00 0.00 98 1009.8
20260508113214 37 247 0.0 0.0 0.00 0.00 0.00 98 1009.5
20260508112709 37 248 0.0 0.0 0.00 0.00 0.00 98 1009.6
20260508112206 37 247 0.0 0.0 0.00 0.00 0.00 98 1009.6
20260508111703 37 247 0.0 0.0 0.00 0.00 0.00 98 1009.4
20260508111201 37 247 0.0 0.0 0.00 0.00 0.00 98 1009.4
20260508110658 37 246 0.0 0.0 0.00 0.00 0.00 97 1009.3
20260508110154 37 246 0.0 0.0 0.00 0.00 0.00 97 1009.5
20260508105649 37 247 0.0 0.0 0.00 0.00 0.00 97 1009.2
20260508105146 37 247 0.0 0.0 0.00 0.00 0.00 97 1009.5
20260508104644 37 246 0.0 0.0 0.00 0.00 0.00 97 1009.6
20260508104140 37 247 0.0 0.0 0.00 0.00 0.00 97 1009.2
20260508103638 37 247 0.0 0.0 0.00 0.00 0.00 97 1009.4
20260508103135 37 246 0.0 0.0 0.00 0.00 0.00 96 1009.3
20260508102632 37 246 0.0 0.0 0.00 0.00 0.00 96 1009.1
20260508102130 37 246 0.0 0.0 0.00 0.00 0.00 96 1009.2
20260508101622 37 246 0.0 0.0 0.00 0.00 0.00 96 1009.1
20260508101119 37 246 0.0 0.0 0.00 0.00 0.00 96 1009.2
20260508100617 37 246 0.0 0.0 0.00 0.00 0.00 96 1009.2
20260508100114 38 246 0.0 0.0 0.00 0.00 0.00 95 1009.4
20260508095611 38 246 0.0 0.0 0.00 0.00 0.00 95 1009.4
20260508095108 38 246 0.0 0.0 0.00 0.00 0.00 95 1009.2
20260508094605 38 246 0.0 0.0 0.00 0.00 0.00 95 1009.3
20260508094101 39 246 0.0 0.0 0.00 0.00 0.00 95 1009.2
20260508093559 39 223 0.0 0.0 0.00 0.00 0.00 95 1009.3
20260508093057 39 223 0.0 0.0 0.00 0.00 0.00 95 1009.3
20260508092553 39 225 0.0 0.0 0.00 0.00 0.00 95 1009.2
20260508092052 39 229 0.0 0.0 0.00 0.00 0.00 94 1009.3
20260508091549 40 219 0.0 0.0 0.00 0.00 0.00 94 1009.4
20260508091046 40 216 0.0 0.0 0.00 0.00 0.00 94 1009.2
20260508090544 40 232 0.0 0.0 0.00 0.00 0.00 94 1009.4
20260508090040 40 223 0.0 0.0 0.00 0.00 0.00 94 1009.2
20260508085536 40 226 0.0 0.0 0.00 0.00 0.00 93 1009.3
20260508085034 40 228 0.0 0.0 0.00 0.00 0.00 93 1009.5
20260508084531 40 228 0.0 0.0 0.00 0.00 0.00 93 1009.2
20260508084028 41 199 0.0 0.0 0.00 0.00 0.00 92 1009.2
20260508083525 41 283 0.0 0.0 0.00 0.00 0.00 92 1009.2
20260508083022 41 248 0.0 0.0 0.00 0.00 0.00 91 1009.0
20260508082517 41 247 0.0 0.0 0.00 0.00 0.00 91 1009.3
20260508082015 41 231 0.0 0.0 0.00 0.00 0.00 91 1009.2
20260508081512 41 246 0.0 0.0 0.00 0.00 0.00 91 1009.3
20260508081008 41 228 0.0 0.0 0.00 0.00 0.00 90 1009.4
20260508080506 41 233 0.0 0.0 0.00 0.00 0.00 90 1009.3
20260508080004 42 232 0.0 0.0 0.00 0.00 0.00 90 1009.2
20260508075500 42 235 0.0 0.0 0.00 0.00 0.00 89 1009.4
20260508074958 42 231 0.0 0.0 0.00 0.00 0.00 89 1009.4
20260508074455 42 231 0.0 0.0 0.00 0.00 0.00 88 1009.4
20260508073951 42 247 0.0 0.0 0.00 0.00 0.00 88 1009.5
20260508073449 42 239 0.0 0.0 0.00 0.00 0.00 88 1009.5
20260508072945 42 239 0.0 0.0 0.00 0.00 0.00 88 1009.6
20260508072436 42 239 0.0 0.0 0.00 0.00 0.00 87 1009.9
20260508071934 43 239 0.0 0.0 0.00 0.00 0.00 87 1009.9
20260508071432 43 239 0.0 0.0 0.00 0.00 0.00 87 1009.7
20260508070929 43 239 0.0 0.0 0.00 0.00 0.00 86 1009.9
20260508070427 43 239 0.0 0.0 0.00 0.00 0.00 85 1010.1
20260508065924 43 239 0.0 0.0 0.00 0.00 0.00 85 1009.7
20260508065422 43 239 0.0 0.0 0.00 0.00 0.00 84 1009.8
20260508064920 44 238 0.0 0.0 0.00 0.00 0.00 84 1010.1
20260508064417 44 238 0.0 0.0 0.00 0.00 0.00 84 1009.7
20260508063915 44 239 0.0 0.0 0.00 0.00 0.00 84 1009.7
20260508063412 44 248 0.0 0.0 0.00 0.00 0.00 83 1009.7
20260508062909 44 248 0.0 0.0 0.00 0.00 0.00 83 1009.6
20260508062407 44 247 0.0 0.0 0.00 0.00 0.00 83 1009.8
20260508061904 44 248 0.0 0.0 0.00 0.00 0.00 84 1009.9
20260508061402 44 255 0.0 0.0 0.00 0.00 0.00 84 1009.8
20260508060857 44 254 0.0 0.0 0.00 0.00 0.00 84 1009.6
20260508060356 44 254 0.0 0.0 0.00 0.00 0.00 83 1009.7
20260508055856 44 254 0.0 0.0 0.00 0.00 0.00 82 1009.9
20260508055353 44 254 0.0 0.0 0.00 0.00 0.00 82 1009.8
20260508054850 44 248 0.0 0.0 0.00 0.00 0.00 82 1009.9
20260508054347 44 248 0.0 0.0 0.00 0.00 0.00 81 1009.9
20260508053844 45 248 0.0 0.0 0.00 0.00 0.00 80 1009.8
20260508053341 44 249 0.0 0.0 0.00 0.00 0.00 81 1009.9
20260508052838 44 248 0.0 0.0 0.00 0.00 0.00 80 1009.7
20260508052336 44 249 0.0 0.0 0.00 0.00 0.00 80 1009.9
20260508051832 44 245 0.0 0.0 0.00 0.00 0.00 79 1009.7
20260508051327 45 255 0.0 0.0 0.00 0.00 0.00 79 1009.8
20260508050824 45 254 0.0 0.0 0.00 0.00 0.00 78 1009.9
20260508050321 45 254 0.0 0.0 0.00 0.00 0.00 78 1009.9
20260508045822 45 204 0.0 0.0 0.00 0.00 0.00 78 1010.3
20260508045320 45 265 0.0 0.0 0.00 0.00 0.00 77 1010.1
20260508044817 45 274 0.0 0.0 0.00 0.00 0.00 77 1009.8
20260508044314 45 270 0.0 0.0 0.00 0.00 0.00 78 1010.1
20260508043810 45 256 0.0 0.0 0.00 0.00 0.00 78 1009.8
20260508043307 45 236 0.0 0.0 0.00 0.00 0.00 77 1009.8
20260508042804 45 247 0.0 0.0 0.00 0.00 0.00 78 1009.8
20260508042306 45 245 0.0 0.0 0.00 0.00 0.00 76 1009.7
20260508041758 46 269 0.0 0.0 0.00 0.00 0.00 76 1009.9
20260508041254 46 76 0.0 0.0 0.00 0.00 0.00 74 1009.6
20260508040751 46 76 0.0 0.0 0.00 0.00 0.00 74 1009.5
20260508040248 46 234 0.0 0.0 0.00 0.00 0.00 73 1009.7
20260508035746 46 231 0.0 0.0 0.00 0.00 0.00 73 1009.7
20260508035243 47 234 0.0 0.0 0.00 0.00 0.00 71 1009.7
20260508034739 47 235 0.0 0.0 0.00 0.00 0.00 71 1009.8
20260508034237 47 236 0.0 0.0 0.00 0.00 0.00 70 1009.8
20260508033734 48 231 0.0 0.0 0.00 0.00 0.00 69 1009.6
20260508033232 48 227 0.0 0.0 0.00 0.00 0.00 68 1009.9
20260508032729 48 111 0.0 0.0 0.00 0.00 0.00 67 1009.8
20260508032226 48 92 0.0 0.0 0.00 0.00 0.00 66 1009.8
20260508031723 48 243 0.0 0.0 0.00 0.00 0.00 66 1009.8
20260508031219 48 304 0.0 0.0 0.00 0.00 0.00 66 1009.9
20260508030716 48 314 0.0 0.0 0.00 0.00 0.00 66 1009.8
20260508030213 48 254 0.0 0.0 0.00 0.00 0.00 67 1009.9
20260508025709 48 255 0.0 0.0 0.00 0.00 0.00 68 1010.2
20260508025207 48 252 0.0 0.0 0.00 0.00 0.00 72 1009.9
20260508024702 48 246 0.0 0.0 0.00 0.00 0.00 68 1010.1
20260508024200 48 246 0.0 0.0 0.00 0.00 0.00 67 1010.1
20260508023656 48 265 0.0 0.0 0.00 0.00 0.00 71 1010.2
20260508023154 48 246 0.0 0.0 0.00 0.00 0.00 72 1010.2
20260508022649 48 246 0.0 0.0 0.00 0.00 0.00 66 1010.2
20260508022147 48 246 0.0 0.0 0.00 0.00 0.00 67 1010.2
20260508021643 48 246 0.0 0.0 0.00 0.00 0.00 63 1010.1
20260508021138 48 251 0.0 0.0 0.00 0.00 0.00 63 1009.9
20260508020636 48 251 0.0 0.0 0.00 0.00 0.00 64 1009.9
20260508020134 49 250 0.0 0.0 0.00 0.00 0.00 64 1010.1
20260508015631 49 162 0.0 1.0 0.00 0.00 0.00 64 1009.7
20260508015128 50 114 0.0 0.0 0.00 0.00 0.00 65 1009.7
20260508014624 50 290 0.0 0.0 0.00 0.00 0.00 60 1009.8
20260508014120 50 286 0.0 0.0 0.00 0.00 0.00 57 1010.3
20260508013617 51 308 1.0 1.0 0.00 0.00 0.00 57 1010.3
20260508013114 51 255 0.0 1.0 0.00 0.00 0.00 55 1009.8
20260508012611 51 38 0.0 0.0 0.00 0.00 0.00 51 1009.5
20260508012108 51 36 0.0 0.0 0.00 0.00 0.00 51 1009.7
20260508011607 50 104 0.0 1.0 0.00 0.00 0.00 50 1009.6
20260508011104 50 174 0.0 0.0 0.00 0.00 0.00 51 1009.6
20260508010600 50 174 0.0 0.0 0.00 0.00 0.00 55 1009.4
20260508010058 50 259 0.0 0.0 0.00 0.00 0.00 52 1009.6
20260508005554 50 184 0.0 1.0 0.00 0.00 0.00 52 1009.3
20260508005051 50 184 0.0 0.0 0.00 0.00 0.00 51 1009.1
20260508004547 51 178 1.0 1.0 0.00 0.00 0.00 51 1009.2
20260508004044 51 220 0.0 0.0 0.00 0.00 0.00 51 1009.1
20260508003540 51 220 0.0 0.0 0.00 0.00 0.00 49 1009.3
20260508003038 51 220 0.0 0.0 0.00 0.00 0.00 49 1009.3
20260508002534 51 220 0.0 0.0 0.00 0.00 0.00 49 1009.2
20260508002031 52 226 0.0 0.0 0.00 0.00 0.00 49 1009.2
20260508001527 52 226 0.0 0.0 0.00 0.00 0.00 48 1009.1
20260508001023 52 204 0.0 0.0 0.00 0.00 0.00 47 1009.0
20260508000519 52 183 0.0 0.0 0.00 0.00 0.00 47 1009.4
20260508000017 52 242 0.0 0.0 0.00 0.00 0.00 46 1009.1
20260507235513 53 259 0.0 0.0 0.00 0.00 0.00 46 1009.0
20260507235011 53 284 0.0 1.0 0.00 0.00 0.00 45 1008.9
20260507234507 53 248 0.0 1.0 0.00 0.00 0.00 45 1009.2
20260507234004 53 270 0.0 0.0 0.00 0.00 0.00 45 1009.1
20260507233500 53 180 0.0 0.0 0.00 0.00 0.00 45 1009.0
20260507232959 53 175 0.0 1.0 0.00 0.00 0.00 44 1009.3
20260507232455 53 240 0.0 0.0 0.00 0.00 0.00 45 1009.3
20260507231953 54 207 0.0 1.0 0.00 0.00 0.00 44 1009.2
20260507231448 54 167 0.0 0.0 0.00 0.00 0.00 45 1009.3
20260507230945 54 227 0.0 0.0 0.00 0.00 0.00 44 1009.3
20260507230443 54 274 0.0 0.0 0.00 0.00 0.00 44 1009.2
20260507225938 54 241 0.0 0.0 0.00 0.00 0.00 43 1009.4